DLH04C LEBL-EDDF

Flight info

Callsign DLH04C
Flight time 1h 44m
Altitude 36000
Route DALIN DCT PIVUS DCT DIBER DCT ADITA DCT MAXIR DCT LUSOL DCT BODRU DCT OKTET DCT IRMAR DCT KINES DCT VANAS DCT MOBLO DCT UBIMA DCT SOSAL DCT KORED DCT BERSU N871 DITON/N0450F350 DCT LADOL/N0452F360 T163 EMPAX EMPAX5B
Aircraft A321/M-SDE3FGHIRWY/LB1

Departure

Time 2026-04-16 09:42
Airport Josep Tarradellas Barcelona-El Prat Airport (LEBL)

Arrival

Time 2026-04-16 11:27
Airport Frankfurt Main Airport (EDDF)
Time Latitude Longitude Altitude Speed Heading
2026-04-16 09:42 41.40120 2.18843 15372 ft 405 kts 66°
2026-04-16 09:42 41.41140 2.22360 15840 ft 407 kts 66°
2026-04-16 09:43 41.42159 2.25891 16306 ft 410 kts 66°
2026-04-16 09:43 41.43186 2.29451 16780 ft 413 kts 66°
2026-04-16 09:43 41.44220 2.33028 17261 ft 415 kts 66°
2026-04-16 09:43 41.45260 2.36627 17707 ft 417 kts 66°
2026-04-16 09:44 41.46306 2.40254 18142 ft 420 kts 66°
2026-04-16 09:44 41.47357 2.43895 18563 ft 423 kts 66°
2026-04-16 09:44 41.48417 2.47569 18951 ft 426 kts 66°
2026-04-16 09:44 41.49483 2.51264 19343 ft 428 kts 66°
2026-04-16 09:45 41.50551 2.54973 19745 ft 429 kts 66°
2026-04-16 09:45 41.51620 2.58700 20149 ft 431 kts 66°
2026-04-16 09:45 41.52692 2.62453 20564 ft 433 kts 66°
2026-04-16 09:45 41.53765 2.66213 20958 ft 435 kts 66°
2026-04-16 09:46 41.54845 2.69998 21353 ft 437 kts 66°
2026-04-16 09:46 41.55931 2.73798 21740 ft 439 kts 66°
2026-04-16 09:46 41.57021 2.77613 22111 ft 441 kts 66°
2026-04-16 09:46 41.58113 2.81446 22501 ft 442 kts 66°
2026-04-16 09:47 41.59205 2.85291 22871 ft 444 kts 66°
2026-04-16 09:47 41.60302 2.89161 23237 ft 446 kts 66°
2026-04-16 09:47 41.61402 2.93043 23612 ft 448 kts 66°
2026-04-16 09:47 41.62507 2.96948 23938 ft 450 kts 66°
2026-04-16 09:48 41.63612 3.00864 24252 ft 452 kts 66°
2026-04-16 09:48 41.64722 3.04805 24555 ft 453 kts 66°
2026-04-16 09:48 41.65834 3.08763 24846 ft 456 kts 67°
2026-04-16 09:48 41.66948 3.12737 25117 ft 458 kts 67°
2026-04-16 09:49 41.68072 3.16739 25389 ft 460 kts 67°
2026-04-16 09:49 41.69198 3.20750 25655 ft 462 kts 67°
2026-04-16 09:49 41.70328 3.24783 25912 ft 463 kts 67°
2026-04-16 09:49 41.71440 3.28778 26155 ft 465 kts 67°
2026-04-16 09:50 41.72566 3.32842 26395 ft 467 kts 67°
2026-04-16 09:50 41.73708 3.36922 26615 ft 468 kts 66°
2026-04-16 09:50 41.74940 3.40953 26823 ft 469 kts 64°
2026-04-16 09:50 41.76261 3.44948 27070 ft 468 kts 63°
2026-04-16 09:51 41.77626 3.48905 27361 ft 467 kts 63°
2026-04-16 09:51 41.78999 3.52837 27678 ft 467 kts 63°
2026-04-16 09:51 41.80364 3.56785 27976 ft 466 kts 63°
2026-04-16 09:51 41.81701 3.60735 28274 ft 466 kts 63°
2026-04-16 09:52 41.83020 3.64700 28576 ft 465 kts 64°
2026-04-16 09:52 41.84323 3.68664 28875 ft 464 kts 64°
2026-04-16 09:52 41.85616 3.72628 29179 ft 464 kts 64°
2026-04-16 09:52 41.86909 3.76596 29483 ft 463 kts 64°
2026-04-16 09:53 41.88195 3.80546 29798 ft 463 kts 64°
2026-04-16 09:53 41.89488 3.84505 30076 ft 463 kts 64°
2026-04-16 09:53 41.90785 3.88458 30337 ft 463 kts 64°
2026-04-16 09:53 41.92084 3.92414 30591 ft 463 kts 64°
2026-04-16 09:54 41.93377 3.96367 30835 ft 462 kts 64°
2026-04-16 09:54 41.94665 4.00314 31094 ft 461 kts 64°
2026-04-16 09:54 41.95951 4.04261 31364 ft 460 kts 64°
2026-04-16 09:54 41.97229 4.08197 31638 ft 459 kts 64°
2026-04-16 09:55 41.98506 4.12133 31914 ft 458 kts 64°
2026-04-16 09:55 41.99777 4.16048 32185 ft 457 kts 64°
2026-04-16 09:55 42.01046 4.19962 32464 ft 456 kts 64°
2026-04-16 09:55 42.01882 4.22548 32642 ft 456 kts 64°
2026-04-16 09:56 42.03144 4.26463 32857 ft 456 kts 64°
2026-04-16 09:56 42.04400 4.30370 33112 ft 455 kts 64°
2026-04-16 09:56 42.05654 4.34278 33367 ft 454 kts 64°
2026-04-16 09:56 42.06978 4.38124 33617 ft 452 kts 58°
2026-04-16 09:57 42.08672 4.41656 33861 ft 448 kts 50°
2026-04-16 09:57 42.10726 4.44778 34103 ft 444 kts 41°
2026-04-16 09:57 42.13017 4.47547 34337 ft 442 kts 39°
2026-04-16 09:57 42.15311 4.50291 34571 ft 440 kts 39°
2026-04-16 09:58 42.17594 4.53032 34792 ft 440 kts 39°
2026-04-16 09:58 42.19872 4.55780 34998 ft 439 kts 39°
2026-04-16 09:58 42.22143 4.58528 35214 ft 439 kts 39°
2026-04-16 09:58 42.24416 4.61279 35327 ft 440 kts 39°
2026-04-16 09:59 42.26700 4.64042 35493 ft 441 kts 39°
2026-04-16 09:59 42.28984 4.66807 35676 ft 440 kts 39°
2026-04-16 09:59 42.31261 4.69564 35885 ft 440 kts 39°
2026-04-16 09:59 42.33540 4.72323 36092 ft 439 kts 39°
2026-04-16 10:00 42.35813 4.75080 36175 ft 440 kts 39°
2026-04-16 10:00 42.40371 4.80625 36186 ft 441 kts 39°
2026-04-16 10:01 42.47212 4.88950 36177 ft 441 kts 39°
2026-04-16 10:01 42.51768 4.94515 36183 ft 441 kts 39°
2026-04-16 10:02 42.56324 5.00094 36177 ft 442 kts 39°
2026-04-16 10:02 42.60854 5.05665 36173 ft 443 kts 39°
2026-04-16 10:03 42.65421 5.11282 36175 ft 443 kts 39°
2026-04-16 10:03 42.69997 5.16907 36182 ft 444 kts 39°
2026-04-16 10:04 42.74575 5.22547 36181 ft 444 kts 39°
2026-04-16 10:04 42.79144 5.28195 36184 ft 444 kts 39°
2026-04-16 10:05 42.83713 5.33871 36184 ft 444 kts 40°
2026-04-16 10:05 42.88288 5.39556 36173 ft 445 kts 40°
2026-04-16 10:06 42.92870 5.45254 36166 ft 446 kts 40°
2026-04-16 10:06 42.97459 5.50979 36167 ft 447 kts 40°
2026-04-16 10:07 43.02050 5.56718 36175 ft 448 kts 40°
2026-04-16 10:07 43.06643 5.62472 36171 ft 448 kts 40°
2026-04-16 10:08 43.11237 5.68237 36175 ft 448 kts 40°
2026-04-16 10:08 43.15825 5.74010 36170 ft 448 kts 40°
2026-04-16 10:09 43.20415 5.79796 36154 ft 449 kts 40°
2026-04-16 10:09 43.25015 5.85594 36153 ft 449 kts 40°
2026-04-16 10:10 43.29580 5.91369 36158 ft 450 kts 40°
2026-04-16 10:10 43.34174 5.97208 36158 ft 450 kts 40°
2026-04-16 10:11 43.39221 6.02154 36156 ft 444 kts 23°
2026-04-16 10:11 43.45065 6.04581 36153 ft 438 kts
2026-04-16 10:12 43.51130 6.05222 36157 ft 437 kts
2026-04-16 10:12 43.57206 6.05819 36157 ft 438 kts
2026-04-16 10:13 43.63279 6.06439 36156 ft 438 kts
2026-04-16 10:13 43.69358 6.07059 36158 ft 438 kts
2026-04-16 10:14 43.75427 6.07810 36155 ft 439 kts
2026-04-16 10:14 43.81204 6.10581 36153 ft 444 kts 24°
2026-04-16 10:15 43.86763 6.14387 36146 ft 446 kts 24°
2026-04-16 10:15 43.92329 6.18189 36148 ft 446 kts 24°
2026-04-16 10:16 43.97870 6.21966 36154 ft 447 kts 24°
2026-04-16 10:16 44.03453 6.25784 36156 ft 447 kts 24°
2026-04-16 10:17 44.09032 6.29615 36162 ft 447 kts 24°
2026-04-16 10:17 44.14603 6.33447 36164 ft 447 kts 24°
2026-04-16 10:18 44.20170 6.37286 36167 ft 446 kts 24°
2026-04-16 10:18 44.25732 6.41134 36179 ft 447 kts 24°
2026-04-16 10:19 44.31302 6.44989 36179 ft 446 kts 24°
2026-04-16 10:19 44.36860 6.48839 36184 ft 447 kts 24°
2026-04-16 10:20 44.42433 6.52706 36174 ft 447 kts 24°
2026-04-16 10:20 44.48008 6.56596 36178 ft 448 kts 24°
2026-04-16 10:21 44.53592 6.60503 36183 ft 448 kts 24°
2026-04-16 10:21 44.59175 6.64406 36186 ft 449 kts 24°
2026-04-16 10:22 44.64763 6.68318 36181 ft 449 kts 24°
2026-04-16 10:22 44.70348 6.72239 36195 ft 449 kts 24°
2026-04-16 10:23 44.75933 6.76166 36187 ft 448 kts 21°
2026-04-16 10:23 44.81820 6.78550 36193 ft 442 kts
2026-04-16 10:24 44.87932 6.78506 36186 ft 439 kts 354°
2026-04-16 10:24 44.94043 6.78088 36183 ft 440 kts 355°
2026-04-16 10:25 45.00171 6.77707 36193 ft 441 kts 355°
2026-04-16 10:25 45.06300 6.77317 36198 ft 441 kts 355°
2026-04-16 10:26 45.12439 6.76908 36204 ft 442 kts 355°
2026-04-16 10:26 45.18578 6.76502 36222 ft 442 kts 355°
2026-04-16 10:27 45.24718 6.76092 36220 ft 441 kts 355°
2026-04-16 10:27 45.30848 6.75681 36226 ft 441 kts 355°
2026-04-16 10:28 45.36933 6.75270 36230 ft 441 kts 355°
2026-04-16 10:28 45.43063 6.74856 36233 ft 441 kts 355°
2026-04-16 10:29 45.49191 6.74441 36227 ft 441 kts 355°
2026-04-16 10:29 45.55320 6.74031 36227 ft 441 kts 355°
2026-04-16 10:30 45.61440 6.73616 36234 ft 440 kts 355°
2026-04-16 10:30 45.67555 6.73187 36237 ft 439 kts 355°
2026-04-16 10:31 45.73512 6.72773 36242 ft 440 kts 355°
2026-04-16 10:31 45.79622 6.72354 36249 ft 439 kts 355°
2026-04-16 10:32 45.85717 6.71936 36244 ft 438 kts 355°
2026-04-16 10:32 45.91797 6.71526 36245 ft 437 kts 355°
2026-04-16 10:33 45.97815 6.71123 36265 ft 434 kts 355°
2026-04-16 10:33 46.03858 6.70715 36264 ft 434 kts 355°
2026-04-16 10:34 46.09874 6.70312 36268 ft 432 kts 356°
2026-04-16 10:34 46.15839 6.71432 36272 ft 437 kts 13°
2026-04-16 10:35 46.21677 6.73909 36275 ft 437 kts 13°
2026-04-16 10:35 46.27511 6.76392 36271 ft 437 kts 13°
2026-04-16 10:36 46.33340 6.78865 36266 ft 436 kts 13°
2026-04-16 10:36 46.39173 6.81334 36291 ft 437 kts 13°
2026-04-16 10:37 46.45005 6.83816 36295 ft 437 kts 13°
2026-04-16 10:37 46.50832 6.86319 36300 ft 437 kts 15°
2026-04-16 10:38 46.56257 6.90449 36276 ft 448 kts 34°
2026-04-16 10:38 46.60586 6.97048 36271 ft 455 kts 47°
2026-04-16 10:39 46.64573 7.04226 36272 ft 456 kts 47°
2026-04-16 10:39 46.68574 7.11422 36277 ft 457 kts 47°
2026-04-16 10:40 46.72532 7.18590 36288 ft 458 kts 47°
2026-04-16 10:40 46.76498 7.25806 36495 ft 443 kts 46°
2026-04-16 10:41 46.80258 7.32658 36269 ft 424 kts 46°
2026-04-16 10:41 46.83945 7.39365 36246 ft 424 kts 46°
2026-04-16 10:42 46.87629 7.46102 36247 ft 424 kts 46°
2026-04-16 10:42 46.91295 7.52852 36274 ft 424 kts 47°
2026-04-16 10:43 46.94963 7.59609 36280 ft 424 kts 46°
2026-04-16 10:43 46.98629 7.66373 36280 ft 425 kts 46°
2026-04-16 10:44 47.02295 7.73165 36282 ft 425 kts 47°
2026-04-16 10:44 47.05962 7.79974 36290 ft 425 kts 47°
2026-04-16 10:45 47.09623 7.86785 36291 ft 425 kts 47°
2026-04-16 10:45 47.13276 7.93619 36297 ft 426 kts 49°
2026-04-16 10:46 47.15982 7.99782 36292 ft 429 kts 52°
2026-04-16 10:46 47.19132 8.07181 36293 ft 429 kts 52°
2026-04-16 10:47 47.22303 8.14622 36302 ft 429 kts 52°
2026-04-16 10:47 47.25466 8.22070 36306 ft 429 kts 52°
2026-04-16 10:48 47.28716 8.29414 36316 ft 424 kts 46°
2026-04-16 10:48 47.33065 8.35126 36282 ft 420 kts 26°
2026-04-16 10:49 47.35659 8.37163 36060 ft 427 kts 20°
2026-04-16 10:49 47.38398 8.39001 35809 ft 436 kts 20°
2026-04-16 10:49 47.41155 8.40918 35558 ft 440 kts 21°
2026-04-16 10:49 47.43919 8.42889 35331 ft 441 kts 22°
2026-04-16 10:50 47.49431 8.46879 35287 ft 442 kts 22°
2026-04-16 10:50 47.54970 8.50853 35272 ft 443 kts 21°
2026-04-16 10:51 47.60528 8.54800 35276 ft 443 kts 21°
2026-04-16 10:51 47.66084 8.58758 35276 ft 443 kts 21°
2026-04-16 10:52 47.71638 8.62733 35286 ft 443 kts 21°
2026-04-16 10:52 47.77200 8.66724 35281 ft 444 kts 21°
2026-04-16 10:53 47.82771 8.70733 35277 ft 445 kts 21°
2026-04-16 10:53 47.88342 8.74759 35286 ft 445 kts 21°
2026-04-16 10:54 47.93922 8.78792 35287 ft 446 kts 21°
2026-04-16 10:54 47.99502 8.82826 35283 ft 446 kts 21°
2026-04-16 10:55 48.05086 8.86876 35286 ft 446 kts 21°
2026-04-16 10:55 48.10408 8.90751 35294 ft 447 kts 21°
2026-04-16 10:56 48.16060 8.94549 35281 ft 442 kts 13°
2026-04-16 10:56 48.22031 8.96137 35273 ft 435 kts
2026-04-16 10:57 48.28055 8.97033 35271 ft 435 kts
2026-04-16 10:57 48.34085 8.97955 35278 ft 436 kts
2026-04-16 10:58 48.40124 8.98877 35268 ft 436 kts
2026-04-16 10:58 48.46161 8.99799 35269 ft 436 kts
2026-04-16 10:59 48.49166 9.00259 35073 ft 430 kts
2026-04-16 10:59 48.52110 9.00716 34828 ft 420 kts
2026-04-16 10:59 48.54982 9.01165 34631 ft 410 kts
2026-04-16 10:59 48.57793 9.01603 34273 ft 404 kts
2026-04-16 11:00 48.60580 9.02031 33776 ft 400 kts
2026-04-16 11:00 48.63337 9.02458 33254 ft 397 kts
2026-04-16 11:00 48.66075 9.02992 32738 ft 395 kts
2026-04-16 11:00 48.68781 9.03625 32229 ft 393 kts
2026-04-16 11:01 48.71470 9.04309 31738 ft 390 kts
2026-04-16 11:01 48.74137 9.04999 31258 ft 387 kts
2026-04-16 11:01 48.76773 9.05671 30581 ft 383 kts
2026-04-16 11:01 48.79390 9.06322 29833 ft 379 kts
2026-04-16 11:02 48.81981 9.06951 29064 ft 376 kts
2026-04-16 11:02 48.84552 9.07565 28317 ft 372 kts
2026-04-16 11:02 48.87098 9.08169 27599 ft 369 kts
2026-04-16 11:02 48.89625 9.08727 26878 ft 365 kts
2026-04-16 11:03 48.92141 9.09147 26155 ft 362 kts
2026-04-16 11:03 48.94636 9.09480 25495 ft 359 kts 360°
2026-04-16 11:03 48.99548 9.10076 24160 ft 354 kts 360°
2026-04-16 11:04 49.01995 9.10392 23438 ft 352 kts
2026-04-16 11:04 49.04414 9.10725 22773 ft 347 kts
2026-04-16 11:04 49.06803 9.11065 22118 ft 343 kts
2026-04-16 11:04 49.09175 9.11405 21481 ft 343 kts
2026-04-16 11:05 49.11546 9.11743 20867 ft 341 kts
2026-04-16 11:05 49.13903 9.12077 20254 ft 340 kts
2026-04-16 11:05 49.16241 9.12409 19792 ft 335 kts
2026-04-16 11:05 49.18551 9.12739 19242 ft 333 kts
2026-04-16 11:06 49.20858 9.13072 18697 ft 331 kts
2026-04-16 11:06 49.23137 9.13403 17987 ft 328 kts
2026-04-16 11:06 49.25401 9.13730 17288 ft 325 kts
2026-04-16 11:06 49.27643 9.14059 16614 ft 322 kts
2026-04-16 11:07 49.29841 9.14679 15979 ft 320 kts 10°
2026-04-16 11:07 49.31984 9.15454 15502 ft 314 kts
2026-04-16 11:07 49.34105 9.16210 15070 ft 312 kts
2026-04-16 11:07 49.36213 9.16952 14642 ft 309 kts
2026-04-16 11:08 49.38308 9.17686 14235 ft 309 kts 10°
2026-04-16 11:08 49.40406 9.18423 13769 ft 309 kts 10°
2026-04-16 11:08 49.42488 9.19157 13331 ft 305 kts 10°
2026-04-16 11:08 49.44541 9.19885 12916 ft 300 kts 10°
2026-04-16 11:09 49.46566 9.20604 12508 ft 298 kts 10°
2026-04-16 11:09 49.48576 9.21318 12100 ft 295 kts 11°
2026-04-16 11:09 49.50568 9.22028 11698 ft 293 kts 11°
2026-04-16 11:09 49.52543 9.22733 11295 ft 291 kts 11°
2026-04-16 11:10 49.54499 9.23431 11099 ft 286 kts 11°
2026-04-16 11:10 49.56448 9.24124 11027 ft 288 kts 11°
2026-04-16 11:10 49.58402 9.24820 10917 ft 288 kts 11°
2026-04-16 11:10 49.60353 9.25516 10812 ft 288 kts 11°
2026-04-16 11:11 49.62296 9.26214 10693 ft 286 kts 11°
2026-04-16 11:11 49.64234 9.26908 10587 ft 286 kts 11°
2026-04-16 11:11 49.66170 9.27601 10468 ft 285 kts 11°
2026-04-16 11:11 49.68101 9.28293 10351 ft 284 kts 11°
2026-04-16 11:12 49.70019 9.28979 10266 ft 283 kts 11°
2026-04-16 11:12 49.71941 9.29669 10159 ft 284 kts 11°
2026-04-16 11:12 49.73861 9.30361 10064 ft 283 kts 11°
2026-04-16 11:12 49.75775 9.31051 9971 ft 282 kts 11°
2026-04-16 11:13 49.77688 9.31738 9875 ft 282 kts 11°
2026-04-16 11:13 49.79602 9.32425 9787 ft 282 kts 11°
2026-04-16 11:13 49.81513 9.33113 9402 ft 282 kts 11°
2026-04-16 11:13 49.83425 9.33554 9214 ft 277 kts 355°
2026-04-16 11:14 49.85266 9.32805 9061 ft 274 kts 330°
2026-04-16 11:14 49.86687 9.30952 8917 ft 272 kts 306°
2026-04-16 11:14 49.87488 9.28323 8788 ft 272 kts 287°
2026-04-16 11:14 49.88022 9.25512 8647 ft 271 kts 286°
2026-04-16 11:15 49.88550 9.22719 8513 ft 270 kts 286°
2026-04-16 11:15 49.89081 9.19912 8374 ft 271 kts 286°
2026-04-16 11:15 49.89613 9.17113 8186 ft 271 kts 286°
2026-04-16 11:15 49.90145 9.14315 7870 ft 269 kts 286°
2026-04-16 11:16 49.90673 9.11533 7723 ft 269 kts 286°
2026-04-16 11:16 49.91205 9.08735 7596 ft 272 kts 286°
2026-04-16 11:16 49.91743 9.05907 7443 ft 273 kts 286°
2026-04-16 11:16 49.92280 9.03084 7289 ft 273 kts 286°
2026-04-16 11:17 49.92816 9.00259 7153 ft 272 kts 286°
2026-04-16 11:17 49.93348 8.97444 7014 ft 272 kts 286°
2026-04-16 11:17 49.94084 8.94757 6860 ft 271 kts 303°
2026-04-16 11:17 49.95402 8.92686 6728 ft 272 kts 326°
2026-04-16 11:18 49.97137 8.91553 6569 ft 273 kts 348°
2026-04-16 11:18 49.99027 8.91443 6412 ft 273 kts
2026-04-16 11:18 50.00896 8.91920 6254 ft 273 kts 19°
2026-04-16 11:18 50.02546 8.93350 6106 ft 273 kts 40°
2026-04-16 11:19 50.03772 8.95566 5954 ft 271 kts 60°
2026-04-16 11:19 50.04505 8.98266 5798 ft 271 kts 70°
2026-04-16 11:19 50.05143 9.01011 5649 ft 270 kts 70°
2026-04-16 11:19 50.06060 9.03521 5496 ft 267 kts 46°
2026-04-16 11:20 50.07597 9.05090 5350 ft 266 kts 18°
2026-04-16 11:20 50.09415 9.05360 5186 ft 264 kts 350°
2026-04-16 11:20 50.11170 9.04517 5029 ft 265 kts 339°
2026-04-16 11:20 50.12732 9.03056 4864 ft 264 kts 314°
2026-04-16 11:21 50.13662 9.00623 4698 ft 263 kts 285°
2026-04-16 11:21 50.13742 8.97870 4571 ft 251 kts 257°
2026-04-16 11:21 50.13199 8.95361 4443 ft 239 kts 249°
2026-04-16 11:21 50.12627 8.93009 4340 ft 226 kts 249°
2026-04-16 11:22 50.12096 8.90782 4234 ft 215 kts 249°
2026-04-16 11:22 50.11585 8.88611 4131 ft 213 kts 249°
2026-04-16 11:22 50.11078 8.86453 4040 ft 212 kts 249°
2026-04-16 11:22 50.10571 8.84298 3819 ft 211 kts 249°
2026-04-16 11:23 50.10074 8.82187 3556 ft 209 kts 249°
2026-04-16 11:23 50.09579 8.80085 3277 ft 204 kts 249°
2026-04-16 11:23 50.09098 8.78045 3005 ft 196 kts 249°
2026-04-16 11:23 50.08637 8.76094 2748 ft 189 kts 248°
2026-04-16 11:24 50.08192 8.74210 2519 ft 181 kts 248°
2026-04-16 11:24 50.07765 8.72405 2247 ft 173 kts 248°
2026-04-16 11:24 50.07358 8.70686 2031 ft 166 kts 248°
2026-04-16 11:24 50.06955 8.68997 1793 ft 164 kts 248°
2026-04-16 11:25 50.06561 8.67363 1536 ft 160 kts 247°
2026-04-16 11:25 50.06189 8.65798 1326 ft 150 kts 248°
2026-04-16 11:25 50.05837 8.64285 1154 ft 147 kts 248°
2026-04-16 11:25 50.05484 8.62789 963 ft 144 kts 248°
2026-04-16 11:26 50.05139 8.61341 767 ft 142 kts 248°
2026-04-16 11:26 50.04805 8.59929 586 ft 141 kts 248°
2026-04-16 11:26 50.04465 8.58501 408 ft 140 kts 248°
2026-04-16 11:26 50.04151 8.57191 368 ft 113 kts 250°
2026-04-16 11:27 50.03938 8.56294 360 ft 64 kts 250°
2026-04-16 11:27 50.03888 8.55896 351 ft 29 kts 274°
2026-04-16 11:27 50.03899 8.55737 352 ft 2 kts 278°
2026-04-16 11:27 50.03905 8.55677 351 ft 6 kts 279°
2026-04-16 11:28 50.03935 8.55623 358 ft 8 kts 343°
2026-04-16 11:28 50.03977 8.55661 352 ft 8 kts 61°
2026-04-16 11:28 50.04001 8.55749 356 ft 11 kts 69°
2026-04-16 11:28 50.04032 8.55881 357 ft 15 kts 71°
2026-04-16 11:29 50.04069 8.56038 359 ft 16 kts 69°
2026-04-16 11:29 50.04109 8.56205 357 ft 13 kts 70°
2026-04-16 11:29 50.04169 8.56282 355 ft 12 kts 348°
2026-04-16 11:29 50.04252 8.56233 359 ft 13 kts 339°
2026-04-16 11:30 50.04291 8.56125 355 ft 13 kts 275°
2026-04-16 11:30 50.04357 8.56047 363 ft 13 kts 338°
2026-04-16 11:30 50.04430 8.56050 362 ft 10 kts 41°
2026-04-16 11:30 50.04462 8.56155 360 ft 12 kts 69°
2026-04-16 11:31 50.04472 8.56240 359 ft 5 kts 121°
2026-04-16 11:31 50.04438 8.56264 364 ft 5 kts 162°
2026-04-16 11:31 50.04418 8.56275 360 ft 2 kts 162°
2026-04-16 11:31 50.04417 8.56275 360 ft 0 kts 162°